Location: Bonac
(42.8765°N, 0.9753°E)
Time: 10:42:47
(UTC+00:00)

Cosmos 1959 Rocket - Pass Details

Date: 12 January 2026
Orbit: 946 x 996 km, 83.0° (Epoch: 10 February)

Event Time Altitude Azimuth Distance (km) Brightness Sun altitude
Rises 18:16:04 0° 351° (N) 3,626 7.4 -16.5°
Reaches altitude 10° 18:18:33 10° 351° (N) 2,678 6.8 -17.0°
Maximum altitude 18:24:41 85° 264° (W) 961 4.5 -18.0°
Drops below altitude 10° 18:30:49 10° 177° (S) 2,680 6.9 -19.1°
Sets 18:33:18 0° 176° (S) 3,629 7.6 -19.6°
